Flag for Germany Weather past 2 weeks in Dormagen, North Rhine-Westphalia, Germany

Now
68 °F

Partly sunny.


Feels Like: 68 °F
Forecast: 61 / 70 °F
Wind: 10 mph from South

Location: Duesseldorf

Current Time: Aug 28, 2014 at 12:08:06 PM

Latest Report: Aug 28, 2014 at 11:20 AM


Visibility: N/A

Pressure: 30.01 "Hg

Humidity: 69%

Dew point: 57 °F

Location of DormagenLocation

Historic Weather in Dormagen — Graph

°F

Dormagen temperature yesterday

Maximum temperature yesterday: 70 °F (at 3:20 PM)
Minimum temperature yesterday: 50 °F (at 6:20 AM)
Average temperature yesterday: 60 °F

Past Weeks' High & Low Weather Summary

 TemperatureHumidityPressure
High70 °F (Aug 13, 6:20 PM)100% (Aug 26, 8:20 AM)30.09 "Hg (Aug 26, 8:20 AM)
Low46 °F (Aug 20, 2:50 AM)40% (Aug 27, 4:20 PM)29.62 "Hg (Aug 26, 4:50 AM)
Average58 °F77%29.90 "Hg
* Reported Aug 13 10:20 AM — Aug 28 10:50 AM, Dormagen, Weather by CustomWeather, © 2014

Note: Actual official high and low records may vary slightly from our data, if they occured in-between our weather recording intervals... More about our weather records

Advertising

Dormagen weather history for previous 24 hours

 ConditionsComfort  
Time TempWeatherWind HumidityBarometerVisibility
10:50 AM
Aug 28
68 °FSunny.9 mph69%30.01 "Hg10 mi
10:20 AM66 °FSunny.10 mph73%30.01 "Hg10 mi
9:50 AM64 °FSunny.12 mph73%30.01 "Hg10 mi
9:20 AM63 °FPassing clouds.13 mph77%30.01 "HgN/A
8:50 AM61 °FPassing clouds.12 mph77%30.01 "HgN/A
8:20 AM61 °FPassing clouds.13 mph77%30.01 "HgN/A
7:50 AM59 °FPassing clouds.10 mph77%30.01 "HgN/A
7:20 AM57 °FPassing clouds.13 mph82%30.01 "HgN/A
6:50 AM57 °FPassing clouds.10 mph82%30.01 "HgN/A
6:20 AM57 °FClear.10 mph82%30.01 "Hg10 mi
5:50 AM57 °FClear.10 mph77%30.01 "Hg10 mi
5:20 AM57 °FClear.12 mph77%30.01 "Hg10 mi
4:50 AM57 °FClear.10 mph77%30.01 "Hg10 mi
4:20 AM57 °FClear.10 mph77%30.01 "Hg10 mi
3:50 AM59 °FClear.9 mph72%30.01 "Hg10 mi
3:20 AM57 °FClear.8 mph77%30.01 "Hg10 mi
2:50 AM59 °FClear.8 mph72%30.01 "Hg10 mi
2:20 AM59 °FClear.8 mph72%30.01 "Hg10 mi
1:50 AM59 °FClear.7 mph72%30.01 "Hg10 mi
1:20 AM59 °FClear.8 mph72%30.01 "Hg10 mi
12:50 AM61 °FClear.8 mph68%30.01 "Hg10 mi
12:20 AM55 °FClear.3 mph82%30.04 "Hg10 mi
11:50 PM
Aug 27
55 °FClear.3 mph82%30.04 "Hg10 mi
11:20 PM57 °FClear.6 mph77%30.01 "Hg10 mi
10:50 PM59 °FClear.7 mph72%30.01 "Hg10 mi
10:20 PM59 °FClear.6 mph72%30.01 "Hg10 mi
9:50 PM61 °FClear.6 mph68%30.01 "Hg10 mi
9:20 PM59 °FSunny.6 mph72%30.01 "Hg10 mi
8:50 PM63 °FSunny.3 mph59%30.01 "Hg10 mi
8:20 PM64 °FSunny.6 mph56%30.01 "Hg10 mi
7:50 PM66 °FSunny.6 mph49%30.01 "Hg10 mi
7:20 PM68 °FSunny.6 mph43%30.01 "Hg10 mi
6:20 PM70 °FSunny.5 mph40%30.01 "Hg10 mi
5:50 PM70 °FSunny.8 mph40%30.01 "Hg10 mi
4:50 PM70 °FSunny.5 mph43%30.01 "Hg10 mi
4:20 PM70 °FSunny.5 mph40%30.01 "Hg10 mi
3:50 PM70 °FSunny.2 mph46%30.01 "Hg10 mi
3:20 PM70 °FSunny.3 mph46%30.01 "Hg10 mi
2:50 PM68 °FSunny.2 mph53%30.01 "Hg10 mi
2:20 PM68 °FSunny.5 mph46%30.01 "Hg10 mi
1:50 PM68 °FPassing clouds.6 mph46%30.01 "HgN/A
1:20 PM68 °FPassing clouds.6 mph49%30.04 "HgN/A
12:50 PM66 °FPassing clouds.8 mph52%30.01 "HgN/A
12:20 PM66 °FPassing clouds.6 mph46%30.01 "HgN/A
Weather by CustomWeather, © 2014

See weather overviewHow to use our weather pages